Year,Month,Day,Hour,Minute,Value (Times are PST for temperature in C)
2014,11,11,15,07,8.80
2014,11,11,15,09,8.80
2014,11,11,15,11,8.80
2014,11,11,15,12,8.70
2014,11,11,15,13,8.70
2014,11,11,15,14,8.80
2014,11,11,15,15,8.80
2014,11,11,15,16,8.80
2014,11,11,15,17,8.80
2014,11,11,15,18,8.80
2014,11,11,15,21,8.80
2014,11,11,15,23,8.80
2014,11,11,15,24,8.80
2014,11,11,15,25,8.80
2014,11,11,15,26,8.80
2014,11,11,15,27,8.80
2014,11,11,15,28,8.80
2014,11,11,15,29,8.70
2014,11,11,15,30,8.70
2014,11,11,15,31,8.70
2014,11,11,15,32,8.70
2014,11,11,15,33,8.60
2014,11,11,15,34,8.60
2014,11,11,15,35,8.60
2014,11,11,15,37,8.60
2014,11,11,15,38,8.50
2014,11,11,15,39,8.50
2014,11,11,15,40,8.50
2014,11,11,15,41,8.50
2014,11,11,15,42,8.40
2014,11,11,15,43,8.40
2014,11,11,15,44,8.40
2014,11,11,15,45,8.40
2014,11,11,15,46,8.40
2014,11,11,15,47,8.30
2014,11,11,15,48,8.30
2014,11,11,15,49,8.30
2014,11,11,15,50,8.30
2014,11,11,15,51,8.30
2014,11,11,15,52,8.30
2014,11,11,15,53,8.30
2014,11,11,15,54,8.30
2014,11,11,15,55,8.30
2014,11,11,15,56,8.20
2014,11,11,15,57,8.20
2014,11,11,15,58,8.20
2014,11,11,15,59,8.20
2014,11,11,16,00,8.10
2014,11,11,16,01,8.10
2014,11,11,16,02,8.10
2014,11,11,16,03,8.00
2014,11,11,16,04,8.00
2014,11,11,16,06,7.90
2014,11,11,16,07,7.90
2014,11,11,16,08,7.90
2014,11,11,16,10,7.80
2014,11,11,16,11,7.80
2014,11,11,16,12,7.80
2014,11,11,16,13,7.80
2014,11,11,16,14,7.80
2014,11,11,16,15,7.80
2014,11,11,16,16,7.70
2014,11,11,16,17,7.70
2014,11,11,16,18,7.70
2014,11,11,16,19,7.70
2014,11,11,16,20,7.60
2014,11,11,16,21,7.60
2014,11,11,16,22,7.60
2014,11,11,16,23,7.60
2014,11,11,16,24,7.50
2014,11,11,16,25,7.50
2014,11,11,16,26,7.40
2014,11,11,16,27,7.40
2014,11,11,16,28,7.40
2014,11,11,16,30,7.30
2014,11,11,16,31,7.30
2014,11,11,16,32,7.30
2014,11,11,16,33,7.30
2014,11,11,16,34,7.20
2014,11,11,16,35,7.20
2014,11,11,16,36,7.20
2014,11,11,16,37,7.20
2014,11,11,16,38,7.10
2014,11,11,16,39,7.10
2014,11,11,16,40,7.10
2014,11,11,16,41,7.10
2014,11,11,16,42,7.20
2014,11,11,16,43,7.20
2014,11,11,16,44,7.20
2014,11,11,16,45,7.20
2014,11,11,16,46,7.20
2014,11,11,16,47,7.20
2014,11,11,16,48,7.20
2014,11,11,16,49,7.20
2014,11,11,16,50,7.20
2014,11,11,16,51,7.20
2014,11,11,16,52,7.20
2014,11,11,16,53,7.20
2014,11,11,16,54,7.20
2014,11,11,16,55,7.20
2014,11,11,16,56,7.20
2014,11,11,16,57,7.10
2014,11,11,16,58,7.10
2014,11,11,16,59,7.10
2014,11,11,17,00,7.10
2014,11,11,17,01,7.10
2014,11,11,17,02,7.10
2014,11,11,17,04,7.20
2014,11,11,17,05,7.20
2014,11,11,17,06,7.20
2014,11,11,17,07,7.10
2014,11,11,17,08,7.10
2014,11,11,17,09,7.10
2014,11,11,17,10,7.10
2014,11,11,17,11,7.00
2014,11,11,17,12,7.00
2014,11,11,17,13,7.00
2014,11,11,17,14,6.90
2014,11,11,17,15,6.90
2014,11,11,17,16,6.90
2014,11,11,17,17,6.90
2014,11,11,17,18,6.90
2014,11,11,17,19,6.80
2014,11,11,17,20,6.80
2014,11,11,17,21,6.80
2014,11,11,17,22,6.80
2014,11,11,17,23,6.70
2014,11,11,17,24,6.70
2014,11,11,17,25,6.70
2014,11,11,17,26,6.70
2014,11,11,17,27,6.60
2014,11,11,17,28,6.60
2014,11,11,17,29,6.60
2014,11,11,17,30,6.60
2014,11,11,17,31,6.50
2014,11,11,17,32,6.50
2014,11,11,17,33,6.40
2014,11,11,17,34,6.40
2014,11,11,17,35,6.40
2014,11,11,17,36,6.40
2014,11,11,17,37,6.30
2014,11,11,17,38,6.30
2014,11,11,17,39,6.30
2014,11,11,17,40,6.20
2014,11,11,17,41,6.20
2014,11,11,17,42,6.20
2014,11,11,17,43,6.20
2014,11,11,17,44,6.20
2014,11,11,17,45,6.10
2014,11,11,17,46,6.10
2014,11,11,17,47,6.10
2014,11,11,17,48,6.00
2014,11,11,17,49,6.00
2014,11,11,17,50,5.90
2014,11,11,17,51,5.90
2014,11,11,17,52,5.80
2014,11,11,17,53,5.80
2014,11,11,17,54,5.80
2014,11,11,17,55,5.70
2014,11,11,17,56,5.70
2014,11,11,17,57,5.60
